Torna al catalogo

STARLINK-31220

AttivoComunicazioniVLEO
NORAD 59039·PAYLOAD·🇺🇸 United States

Lanciato Feb 25, 2024 da Cape Canaveral Space Force Station

Loading…

Prossimi Passaggi (prossime 24 ore)

TLE

AggiornatoSource: CelesTrak SupGP

Epoca: Sep 15, 2026, 03:23 UTC

1 59039C 24038S   26258.14145833 -.00013851  00000+0 -50170-3 0  2588
2 59039  43.0014  37.0571 0001526 265.7444  61.6834 15.27585161    19

Traccia STARLINK-31220 in tempo reale con AllMySat

Download on the App Store